GW6025 Weather Reports


time (UTC)temp
C
wind
direction
speed
KPH
gust
KPH
rain 1hr
cm
rain 24hr
cm
rain mn
cm
humidity
%
barometer
mb
20260510192718 30 153 1.6 3.2 0.00 0.00 0.00 46 1012.6
20260510192214 30 189 0.0 0.0 0.00 0.00 0.00 48 1012.6
20260510191710 29 239 3.2 4.8 0.00 0.00 0.00 44 1012.6
20260510191207 29 168 0.0 1.6 0.00 0.00 0.00 45 1012.7
20260510190704 29 187 1.6 3.2 0.00 0.00 0.00 47 1013.0
20260510190202 28 323 4.8 4.8 0.00 0.00 0.00 47 1012.9
20260510185658 28 169 0.0 0.0 0.00 0.00 0.00 51 1012.8
20260510185156 28 200 3.2 4.8 0.00 0.00 0.00 48 1012.7
20260510184652 28 189 0.0 1.6 0.00 0.00 0.00 49 1012.9
20260510184149 28 205 1.6 3.2 0.00 0.00 0.00 48 1012.7
20260510183645 28 168 0.0 1.6 0.00 0.00 0.00 56 1012.7
20260510183139 27 196 0.0 3.2 0.00 0.00 0.00 52 1012.7
20260510182636 27 190 1.6 1.6 0.00 0.00 0.00 52 1012.7
20260510182132 27 194 3.2 4.8 0.00 0.00 0.00 51 1012.8
20260510181629 28 117 3.2 6.4 0.00 0.00 0.00 49 1012.8
20260510181126 28 171 0.0 4.8 0.00 0.00 0.00 49 1012.6
20260510180622 30 309 3.2 4.8 0.00 0.00 0.00 43 1012.8
20260510180120 29 165 1.6 3.2 0.00 0.00 0.00 45 1012.8
20260510175615 28 164 0.0 4.8 0.00 0.00 0.00 46 1012.6
20260510175111 28 162 0.0 1.6 0.00 0.00 0.00 47 1012.8
20260510174609 28 164 1.6 4.8 0.00 0.00 0.00 48 1012.8
20260510174106 28 143 1.6 4.8 0.00 0.00 0.00 50 1012.7
20260510173601 28 134 3.2 4.8 0.00 0.00 0.00 51 1012.8
20260510173058 28 130 3.2 3.2 0.00 0.00 0.00 46 1012.9
20260510172554 28 145 4.8 4.8 0.00 0.00 0.00 47 1013.0
20260510172050 27 163 0.0 0.0 0.00 0.00 0.00 52 1013.0
20260510171547 27 157 0.0 3.2 0.00 0.00 0.00 52 1013.3
20260510171044 27 148 1.6 6.4 0.00 0.00 0.00 50 1013.2
20260510170540 27 33 3.2 4.8 0.00 0.00 0.00 50 1013.3
20260510170037 27 188 0.0 3.2 0.00 0.00 0.00 55 1013.1
20260510165532 27 160 0.0 1.6 0.00 0.00 0.00 56 1013.3
20260510165029 27 116 4.8 9.7 0.00 0.00 0.00 56 1013.2
20260510164526 28 136 3.2 6.4 0.00 0.00 0.00 54 1013.3
20260510164023 28 126 3.2 6.4 0.00 0.00 0.00 58 1013.3
20260510163518 27 181 3.2 3.2 0.00 0.00 0.00 60 1013.3
20260510163014 27 147 0.0 3.2 0.00 0.00 0.00 60 1013.2
20260510162510 27 151 1.6 4.8 0.00 0.00 0.00 59 1013.2
20260510162006 27 183 1.6 4.8 0.00 0.00 0.00 59 1013.3
20260510161502 27 191 1.6 3.2 0.00 0.00 0.00 59 1013.4
20260510160959 27 178 1.6 4.8 0.00 0.00 0.00 60 1013.5
20260510160457 27 203 3.2 4.8 0.00 0.00 0.00 62 1013.3
20260510155954 27 216 4.8 9.7 0.00 0.00 0.00 61 1013.5
20260510155452 26 198 3.2 3.2 0.00 0.00 0.00 62 1013.5
20260510154949 27 217 3.2 4.8 0.00 0.00 0.00 62 1013.5
20260510154444 26 183 1.6 3.2 0.00 0.00 0.00 61 1013.5
20260510153943 26 183 0.0 0.0 0.00 0.00 0.00 63 1013.3
20260510153440 26 220 6.4 9.7 0.00 0.00 0.00 61 1013.3
20260510152937 26 178 0.0 4.8 0.00 0.00 0.00 62 1013.2
20260510152434 26 161 0.0 1.6 0.00 0.00 0.00 65 1013.6
20260510151931 26 164 0.0 3.2 0.00 0.00 0.00 66 1013.0
20260510151428 26 178 1.6 3.2 0.00 0.00 0.00 67 1013.0
20260510150924 25 166 1.6 3.2 0.00 0.00 0.00 71 1013.2
20260510150420 25 178 3.2 3.2 0.00 0.00 0.00 72 1013.4
20260510145916 25 182 0.0 1.6 0.00 0.00 0.00 71 1013.2
20260510145413 24 106 3.2 4.8 0.00 0.00 0.00 72 1013.1
20260510144910 24 329 3.2 3.2 0.00 0.00 0.00 73 1013.1
20260510144407 24 148 1.6 3.2 0.00 0.00 0.00 75 1013.4
20260510143907 23 204 1.6 4.8 0.00 0.00 0.00 76 1013.3
20260510143403 23 167 1.6 3.2 0.00 0.00 0.00 75 1013.4
20260510142900 23 190 3.2 4.8 0.00 0.00 0.00 76 1013.5
20260510142356 23 216 3.2 6.4 0.00 0.00 0.00 76 1013.4
20260510141853 22 177 0.0 4.8 0.00 0.00 0.00 78 1013.3
20260510141351 22 187 3.2 4.8 0.00 0.00 0.00 79 1013.1
20260510140848 22 224 3.2 4.8 0.00 0.00 0.00 80 1013.1
20260510140344 21 185 1.6 4.8 0.00 0.00 0.00 81 1013.1
20260510135843 21 207 1.6 3.2 0.00 0.00 0.00 81 1012.8
20260510135339 21 207 3.2 4.8 0.00 0.00 0.00 82 1012.8
20260510134837 21 250 3.2 3.2 0.00 0.00 0.00 82 1012.9
20260510134333 21 187 0.0 0.0 0.00 0.00 0.00 83 1012.7
20260510133829 21 196 1.6 3.2 0.00 0.00 0.00 83 1012.9
20260510133325 21 246 3.2 4.8 0.00 0.00 0.00 83 1013.0
20260510132821 20 188 0.0 3.2 0.00 0.00 0.00 83 1012.9
20260510132319 20 152 0.0 1.6 0.00 0.00 0.00 84 1012.9
20260510131816 20 198 1.6 3.2 0.00 0.00 0.00 84 1012.9
20260510131314 20 187 0.0 3.2 0.00 0.00 0.00 84 1012.8
20260510130810 20 191 1.6 1.6 0.00 0.00 0.00 84 1012.8
20260510130307 20 150 0.0 0.0 0.00 0.00 0.00 85 1012.6
20260510125803 19 150 0.0 0.0 0.00 0.00 0.00 86 1012.7
20260510125259 19 149 0.0 0.0 0.00 0.00 0.00 85 1012.9
20260510124756 18 149 0.0 0.0 0.00 0.00 0.00 87 1012.6
20260510124253 18 150 0.0 0.0 0.00 0.00 0.00 88 1012.8
20260510123749 18 150 0.0 0.0 0.00 0.00 0.00 89 1012.6
20260510123245 17 150 0.0 0.0 0.00 0.00 0.00 89 1012.7
20260510122741 17 150 0.0 0.0 0.00 0.00 0.00 90 1012.5
20260510122238 16 150 0.0 0.0 0.00 0.00 0.00 91 1012.8
20260510121729 16 150 0.0 0.0 0.00 0.00 0.00 92 1012.5
20260510121226 16 150 0.0 0.0 0.00 0.00 0.00 94 1012.4
20260510120723 15 150 0.0 0.0 0.00 0.00 0.00 95 1012.4
20260510120220 15 150 0.0 0.0 0.00 0.00 0.00 95 1012.5
20260510115715 15 150 0.0 0.0 0.00 0.00 0.00 96 1012.4
20260510115214 14 150 0.0 0.0 0.00 0.00 0.00 96 1012.5
20260510114708 14 150 0.0 0.0 0.00 0.00 0.00 96 1012.2
20260510114206 13 150 0.0 0.0 0.00 0.00 0.00 95 1012.2
20260510113655 13 150 0.0 0.0 0.00 0.00 0.00 95 1012.4
20260510113153 13 150 0.0 0.0 0.00 0.00 0.00 95 1012.4
20260510112649 13 150 0.0 0.0 0.00 0.00 0.00 95 1012.2
20260510112146 13 150 0.0 0.0 0.00 0.00 0.00 95 1012.0
20260510111642 13 150 0.0 0.0 0.00 0.00 0.00 95 1011.9
20260510111139 13 150 0.0 0.0 0.00 0.00 0.00 95 1011.9
20260510110634 13 150 0.0 0.0 0.00 0.00 0.00 95 1011.8
20260510110131 13 150 0.0 0.0 0.00 0.00 0.00 95 1011.8
20260510105626 13 150 0.0 0.0 0.00 0.00 0.00 95 1011.8
20260510105121 13 150 0.0 0.0 0.00 0.00 0.00 95 1011.7
20260510104619 13 150 0.0 0.0 0.00 0.00 0.00 95 1011.6
20260510104115 13 150 0.0 0.0 0.00 0.00 0.00 95 1011.5
20260510103612 13 150 0.0 0.0 0.00 0.00 0.00 95 1011.4
20260510103108 13 150 0.0 0.0 0.00 0.00 0.00 94 1011.2
20260510102603 13 150 0.0 0.0 0.00 0.00 0.00 94 1011.4
20260510102059 13 150 0.0 0.0 0.00 0.00 0.00 94 1011.2
20260510101557 13 150 0.0 0.0 0.00 0.00 0.00 94 1011.0
20260510101056 13 150 0.0 0.0 0.00 0.00 0.00 94 1011.1
20260510100551 13 150 0.0 0.0 0.00 0.00 0.00 94 1011.1
20260510100049 13 150 0.0 0.0 0.00 0.00 0.00 94 1011.1
20260510095544 13 150 0.0 0.0 0.00 0.00 0.00 93 1011.1
20260510095044 13 150 0.0 0.0 0.00 0.00 0.00 93 1011.1
20260510094538 13 150 0.0 0.0 0.00 0.00 0.00 93 1011.0
20260510094034 13 150 0.0 0.0 0.00 0.00 0.00 93 1010.8
20260510093530 13 150 0.0 0.0 0.00 0.00 0.00 93 1010.9
20260510093027 13 150 0.0 0.0 0.00 0.00 0.00 92 1010.9
20260510092524 13 150 0.0 0.0 0.00 0.00 0.00 93 1010.6
20260510092023 13 150 0.0 0.0 0.00 0.00 0.00 93 1010.5
20260510091521 13 150 0.0 0.0 0.00 0.00 0.00 93 1010.6
20260510091017 13 150 0.0 0.0 0.00 0.00 0.00 92 1010.3
20260510090514 13 150 0.0 0.0 0.00 0.00 0.00 92 1010.2
20260510090010 13 150 0.0 0.0 0.00 0.00 0.00 92 1010.2
20260510085504 13 150 0.0 0.0 0.00 0.00 0.00 92 1010.3
20260510085001 13 150 0.0 0.0 0.00 0.00 0.00 91 1010.2
20260510084457 13 150 0.0 0.0 0.00 0.00 0.00 91 1010.2
20260510083954 13 150 0.0 0.0 0.00 0.00 0.00 91 1010.2
20260510083451 13 150 0.0 0.0 0.00 0.00 0.00 91 1010.2
20260510082946 14 150 0.0 0.0 0.00 0.00 0.00 91 1010.1
20260510082444 14 150 0.0 0.0 0.00 0.00 0.00 91 1010.2
20260510081943 14 150 0.0 0.0 0.00 0.00 0.00 91 1010.3
20260510081439 14 150 0.0 0.0 0.00 0.00 0.00 91 1010.2
20260510080936 14 150 0.0 0.0 0.00 0.00 0.00 90 1009.9
20260510080434 14 150 0.0 0.0 0.00 0.00 0.00 90 1009.8
20260510075931 14 150 0.0 0.0 0.00 0.00 0.00 90 1009.9
20260510075429 14 150 0.0 0.0 0.00 0.00 0.00 89 1010.0
20260510074926 14 150 0.0 0.0 0.00 0.00 0.00 90 1010.0
20260510074423 14 150 0.0 0.0 0.00 0.00 0.00 90 1010.0
20260510073919 14 150 0.0 0.0 0.00 0.00 0.00 90 1009.9
20260510073414 13 150 0.0 0.0 0.00 0.00 0.00 90 1010.0
20260510072911 13 150 0.0 0.0 0.00 0.00 0.00 90 1010.1
20260510072409 13 150 0.0 0.0 0.00 0.00 0.00 89 1010.0
20260510071909 13 150 0.0 0.0 0.00 0.00 0.00 89 1009.9
20260510071406 13 150 0.0 0.0 0.00 0.00 0.00 88 1009.9
20260510070904 13 150 0.0 0.0 0.00 0.00 0.00 88 1010.0
20260510070401 13 150 0.0 0.0 0.00 0.00 0.00 88 1010.0
20260510065856 13 150 0.0 0.0 0.00 0.00 0.00 88 1010.1
20260510065353 13 150 0.0 0.0 0.00 0.00 0.00 89 1010.2
20260510064850 13 150 0.0 0.0 0.00 0.00 0.00 89 1010.1
20260510064348 14 150 0.0 0.0 0.00 0.00 0.00 88 1010.1
20260510063844 14 150 0.0 0.0 0.00 0.00 0.00 88 1010.1
20260510063340 14 150 0.0 0.0 0.00 0.00 0.00 88 1010.2
20260510062837 14 150 0.0 0.0 0.00 0.00 0.00 88 1009.8
20260510062333 14 150 0.0 0.0 0.00 0.00 0.00 87 1009.8
20260510061828 14 150 0.0 0.0 0.00 0.00 0.00 87 1009.6
20260510061325 13 150 0.0 0.0 0.00 0.00 0.00 88 1009.6
20260510060821 14 150 0.0 0.0 0.00 0.00 0.00 87 1009.6
20260510060319 14 150 0.0 0.0 0.00 0.00 0.00 87 1009.5
20260510055815 14 150 0.0 0.0 0.00 0.00 0.00 87 1009.6
20260510055314 14 150 0.0 0.0 0.00 0.00 0.00 87 1009.4
20260510054814 14 150 0.0 0.0 0.00 0.00 0.00 86 1009.6
20260510054309 14 150 0.0 0.0 0.00 0.00 0.00 87 1009.6
20260510053804 14 149 0.0 0.0 0.00 0.00 0.00 89 1009.4
20260510053259 15 149 0.0 0.0 0.00 0.00 0.00 88 1009.6
20260510052756 15 149 0.0 0.0 0.00 0.00 0.00 88 1009.5
20260510052251 15 149 0.0 0.0 0.00 0.00 0.00 88 1009.5
20260510051748 15 149 0.0 0.0 0.00 0.00 0.00 88 1009.6
20260510051244 15 149 0.0 0.0 0.00 0.00 0.00 88 1009.5
20260510050741 15 149 0.0 0.0 0.00 0.00 0.00 87 1009.3
20260510050238 15 149 0.0 0.0 0.00 0.00 0.00 88 1009.6
20260510045735 15 149 0.0 0.0 0.00 0.00 0.00 86 1009.5
20260510045232 15 149 0.0 0.0 0.00 0.00 0.00 86 1009.5
20260510044728 15 149 0.0 0.0 0.00 0.00 0.00 84 1009.5
20260510044227 15 149 0.0 0.0 0.00 0.00 0.00 84 1009.5
20260510043721 15 149 0.0 0.0 0.00 0.00 0.00 83 1009.4
20260510043219 15 149 0.0 0.0 0.00 0.00 0.00 82 1009.4
20260510042715 15 149 0.0 0.0 0.00 0.00 0.00 81 1009.3
20260510042212 15 149 0.0 0.0 0.00 0.00 0.00 81 1009.4
20260510041709 15 149 0.0 0.0 0.00 0.00 0.00 79 1009.4
20260510041206 16 149 0.0 0.0 0.00 0.00 0.00 78 1009.6
20260510040702 16 149 0.0 0.0 0.00 0.00 0.00 78 1009.6
20260510040200 16 149 0.0 0.0 0.00 0.00 0.00 76 1009.7
20260510035655 16 149 0.0 0.0 0.00 0.00 0.00 76 1009.7
20260510035150 16 149 0.0 0.0 0.00 0.00 0.00 75 1009.6
20260510034647 16 149 0.0 0.0 0.00 0.00 0.00 75 1009.6
20260510034144 16 149 0.0 0.0 0.00 0.00 0.00 75 1009.6
20260510033641 16 149 0.0 0.0 0.00 0.00 0.00 74 1009.5
20260510033139 16 149 0.0 0.0 0.00 0.00 0.00 74 1009.7
20260510032635 16 149 0.0 0.0 0.00 0.00 0.00 74 1009.5
20260510032130 16 149 0.0 0.0 0.00 0.00 0.00 73 1009.5
20260510031625 16 185 0.0 0.0 0.00 0.00 0.00 73 1009.6
20260510031122 16 163 0.0 0.0 0.00 0.00 0.00 72 1009.6
20260510030617 17 163 0.0 0.0 0.00 0.00 0.00 71 1009.5
20260510030115 17 163 0.0 0.0 0.00 0.00 0.00 70 1009.4
20260510025611 17 163 0.0 0.0 0.00 0.00 0.00 70 1009.5
20260510025109 17 163 0.0 0.0 0.00 0.00 0.00 69 1009.5
20260510024606 17 163 0.0 0.0 0.00 0.00 0.00 71 1009.4
20260510024102 17 163 0.0 0.0 0.00 0.00 0.00 71 1009.4
20260510023558 17 163 0.0 0.0 0.00 0.00 0.00 70 1009.3
20260510023056 17 163 0.0 0.0 0.00 0.00 0.00 70 1009.3
20260510022555 17 163 0.0 0.0 0.00 0.00 0.00 69 1009.2
20260510022056 18 163 0.0 0.0 0.00 0.00 0.00 68 1009.0
20260510021552 18 164 0.0 0.0 0.00 0.00 0.00 68 1009.1
20260510021050 18 164 0.0 0.0 0.00 0.00 0.00 67 1008.9
20260510020544 18 164 0.0 0.0 0.00 0.00 0.00 67 1008.8
20260510020040 18 164 0.0 0.0 0.00 0.00 0.00 67 1008.9
20260510015535 18 164 0.0 0.0 0.00 0.00 0.00 66 1008.8
20260510015031 19 163 0.0 0.0 0.00 0.00 0.00 64 1008.8
20260510014528 20 163 0.0 0.0 0.00 0.00 0.00 63 1008.8
20260510014025 20 163 0.0 0.0 0.00 0.00 0.00 61 1008.4
20260510013520 20 163 0.0 0.0 0.00 0.00 0.00 61 1008.3
20260510013016 21 163 0.0 0.0 0.00 0.00 0.00 60 1008.3
20260510012510 21 163 0.0 0.0 0.00 0.00 0.00 61 1008.2
20260510012006 21 163 0.0 0.0 0.00 0.00 0.00 61 1008.2
20260510011500 21 163 0.0 0.0 0.00 0.00 0.00 58 1008.3
20260510010957 21 163 0.0 0.0 0.00 0.00 0.00 58 1008.1
20260510010454 22 163 0.0 0.0 0.00 0.00 0.00 56 1008.1
20260510005951 22 164 0.0 0.0 0.00 0.00 0.00 56 1007.9
20260510005447 23 176 0.0 0.0 0.00 0.00 0.00 54 1007.9
20260510004945 23 176 0.0 0.0 0.00 0.00 0.00 51 1007.9
20260510004441 23 176 0.0 0.0 0.00 0.00 0.00 50 1007.9
20260510003940 25 177 0.0 0.0 0.00 0.00 0.00 48 1007.5
20260510003436 25 177 0.0 0.0 0.00 0.00 0.00 46 1007.5
20260510002936 26 177 0.0 0.0 0.00 0.00 0.00 42 1007.5
20260510002433 26 177 0.0 0.0 0.00 0.00 0.00 42 1007.5
20260510001929 27 178 0.0 0.0 0.00 0.00 0.00 39 1007.4
20260510001427 27 179 0.0 0.0 0.00 0.00 0.00 37 1007.4
20260510000924 27 181 0.0 0.0 0.00 0.00 0.00 35 1007.3
20260510000421 27 181 0.0 0.0 0.00 0.00 0.00 35 1007.2
20260509235917 27 182 0.0 0.0 0.00 0.00 0.00 34 1007.2
20260509235414 27 163 0.0 0.0 0.00 0.00 0.00 35 1007.0
20260509234910 27 163 0.0 0.0 0.00 0.00 0.00 36 1007.2
20260509234407 27 162 0.0 3.2 0.00 0.00 0.00 32 1007.0
20260509233905 27 159 1.6 3.2 0.00 0.00 0.00 34 1007.0
20260509233403 27 153 1.6 3.2 0.00 0.00 0.00 33 1007.1
20260509232858 27 164 1.6 3.2 0.00 0.00 0.00 32 1006.9
20260509232356 27 170 0.0 0.0 0.00 0.00 0.00 35 1007.0
20260509231852 28 160 0.0 0.0 0.00 0.00 0.00 34 1007.0
20260509231349 28 160 0.0 0.0 0.00 0.00 0.00 34 1007.0
20260509230847 28 161 0.0 0.0 0.00 0.00 0.00 34 1007.0
20260509230343 29 183 0.0 0.0 0.00 0.00 0.00 35 1006.9
20260509225838 28 174 0.0 0.0 0.00 0.00 0.00 34 1007.0
20260509225336 28 165 1.6 1.6 0.00 0.00 0.00 36 1006.9
20260509224832 29 208 3.2 4.8 0.00 0.00 0.00 33 1006.6
20260509224328 29 154 3.2 3.2 0.00 0.00 0.00 35 1006.7
20260509223825 28 208 0.0 0.0 0.00 0.00 0.00 34 1006.7
20260509223321 29 174 0.0 1.6 0.00 0.00 0.00 33 1006.9
20260509222819 29 185 0.0 3.2 0.00 0.00 0.00 33 1006.6
20260509222314 28 177 1.6 1.6 0.00 0.00 0.00 36 1006.7
20260509221810 29 169 1.6 3.2 0.00 0.00 0.00 36 1006.9
20260509221307 29 201 0.0 3.2 0.00 0.00 0.00 35 1007.0
20260509220802 28 205 3.2 3.2 0.00 0.00 0.00 32 1007.1
20260509220259 28 261 3.2 4.8 0.00 0.00 0.00 30 1007.1
20260509215754 29 190 1.6 4.8 0.00 0.00 0.00 31 1006.9
20260509215251 29 204 1.6 4.8 0.00 0.00 0.00 31 1006.9
20260509214748 29 354 4.8 9.7 0.00 0.00 0.00 30 1006.8
20260509214245 29 203 1.6 3.2 0.00 0.00 0.00 29 1007.1
20260509213742 29 123 3.2 3.2 0.00 0.00 0.00 31 1006.9
20260509213238 28 177 0.0 0.0 0.00 0.00 0.00 34 1006.9
20260509212735 29 134 3.2 4.8 0.00 0.00 0.00 30 1007.1
20260509212233 30 192 0.0 4.8 0.00 0.00 0.00 31 1007.1
20260509211728 29 174 1.6 1.6 0.00 0.00 0.00 35 1007.1
20260509211225 29 189 0.0 1.6 0.00 0.00 0.00 35 1007.2
20260509210721 29 145 3.2 3.2 0.00 0.00 0.00 33 1007.2
20260509210219 29 189 0.0 1.6 0.00 0.00 0.00 33 1007.1
20260509205719 28 167 3.2 3.2 0.00 0.00 0.00 32 1007.4
20260509205218 28 204 3.2 4.8 0.00 0.00 0.00 32 1007.2
20260509204715 28 200 1.6 3.2 0.00 0.00 0.00 36 1007.4
20260509204211 28 186 3.2 4.8 0.00 0.00 0.00 32 1007.4
20260509203707 29 213 3.2 4.8 0.00 0.00 0.00 34 1007.3
20260509203206 29 190 0.0 1.6 0.00 0.00 0.00 30 1007.2
20260509202701 28 205 1.6 3.2 0.00 0.00 0.00 26 1007.1
20260509202156 28 145 3.2 6.4 0.00 0.00 0.00 30 1007.4
20260509201651 28 20 6.4 6.4 0.00 0.00 0.00 31 1007.4
20260509201149 28 331 4.8 6.4 0.00 0.00 0.00 31 1007.4
20260509200645 28 16 1.6 11.3 0.00 0.00 0.00 32 1007.4
20260509200140 29 197 1.6 4.8 0.00 0.00 0.00 32 1007.4
20260509195636 30 174 3.2 3.2 0.00 0.00 0.00 33 1007.5
20260509195131 29 187 3.2 4.8 0.00 0.00 0.00 29 1007.5
20260509194630 28 169 3.2 3.2 0.00 0.00 0.00 34 1007.5
20260509194128 28 200 4.8 6.4 0.00 0.00 0.00 38 1007.6
20260509193623 27 245 4.8 6.4 0.00 0.00 0.00 39 1007.6
20260509193119 28 186 3.2 9.7 0.00 0.00 0.00 44 1007.6